Dubuque, IA

8:39 AM CDT on April 28, 2017 (GMT -0500)
Dubuque Regional

Weather History for KDBQ - September, 2013

Change the Weather History Date:

Sunday, September 15, 2013

  Actual Average Record
Temperature  
Mean Temperature 57 °F 62 °F  
Max Temperature 61 °F 73 °F 97 °F (1939)
Min Temperature 52 °F 52 °F 32 °F (2007)
Degree Days  
Heating Degree Days 8 5  
Month to date heating degree days 31 44  
Since 1 July heating degree days 63 71  
Cooling Degree Days 0 2  
Month to date cooling degree days 78 43  
Year to date cooling degree days 614 619  
Growing Degree Days 6 (Base 50)    
Moisture  
Dew Point 54 °F    
Average Humidity 80    
Maximum Humidity 100    
Minimum Humidity 60    
Precipitation  
Precipitation 0.35 in 0.11 in 1.57 in (1927)
Month to date precipitation 0.44 1.76  
Year to date precipitation 31.13 27.74  
Snow  
Snow 0.00 in 0.00 in - ()
Month to date snowfall 0.0 0.0  
Since 1 July snowfall 0.0 0.0  
Since 1 September snowfall 0.0 0.0  
Snow Depth 0.00 in    
Sea Level Pressure  
Sea Level Pressure 30.03 in    
Wind  
Wind Speed 8 mph (East)    
Max Wind Speed 24 mph    
Max Gust Speed 43 mph    
Visibility 9 miles    
Events Rain    
T = Trace of Precipitation, MM = Missing Value Source: NWS Daily Summary

Daily Weather History Graph

Daily Weather History Graph

Search for Another Location

Airport or City:

Trip Planner

Search our weather history database for the weather conditions in past years. The results will help you decide how hot, cold, wet, or windy it might be!

Date:

Astronomy

Sep. 15, 2013 Rise Set
Actual Time 6:43 AM CDT 7:12 PM CDT
Civil Twilight 6:14 AM CDT 7:40 PM CDT
Nautical Twilight 5:41 AM CDT 8:13 PM CDT
Astronomical Twilight 5:07 AM CDT 8:47 PM CDT
Moon 4:43 PM CDT (9/15) 2:17 AM CDT (9/15)
Length of Visible Light 13h 25m
Length of Day
12h 29m
Waxing Gibbous, 82% of the Moon is Illuminated
Sep 15
Waxing Gibbous
Sep 19
Full
Sep 26
Last Quarter
Oct 4
New
Oct 11
First Quarter

Hourly Weather History & Observations

Time (CDT) Temp. Dew Point Humidity Pressure Visibility Wind Dir Wind Speed Gust Speed Precip Events Conditions
12:53 AM 60.1 °F 46.9 °F 62% 29.96 in 10.0 mi South 10.4 mph - N/A   Mostly Cloudy
1:53 AM 57.9 °F 48.9 °F 72% 30.01 in 10.0 mi NNE 6.9 mph - N/A   Overcast
2:53 AM 54.0 °F 52.0 °F 93% 30.05 in 7.0 mi NW 5.8 mph - 0.10 in Rain Light Rain
3:53 AM 55.0 °F 53.1 °F 93% 30.01 in 10.0 mi East 3.5 mph - 0.02 in   Overcast
4:53 AM 55.0 °F 52.0 °F 89% 29.98 in 10.0 mi SE 9.2 mph - 0.01 in   Overcast
5:53 AM 54.0 °F 51.1 °F 90% 29.96 in 10.0 mi SSE 12.7 mph - 0.07 in   Overcast
6:53 AM 54.0 °F 52.0 °F 93% 29.96 in 8.0 mi SSE 11.5 mph - 0.00 in Rain Light Rain
7:53 AM 53.1 °F 53.1 °F 100% 29.94 in 10.0 mi SSE 18.4 mph 21.9 mph 0.04 in   Overcast
8:04 AM 53.6 °F 53.6 °F 100% 29.94 in 10.0 mi South 12.7 mph - N/A   Overcast
8:24 AM 53.6 °F 53.6 °F 100% 29.94 in 10.0 mi SSE 16.1 mph 23.0 mph N/A   Overcast
8:31 AM 53.6 °F 53.6 °F 100% 29.94 in 10.0 mi SSE 16.1 mph 23.0 mph N/A   Overcast
8:53 AM 54.0 °F 53.1 °F 97% 29.96 in 10.0 mi South 9.2 mph - N/A   Overcast
9:11 AM 53.6 °F 53.6 °F 100% 29.95 in 10.0 mi SSE 15.0 mph 26.5 mph N/A   Overcast
9:42 AM 53.6 °F 53.6 °F 100% 29.97 in 10.0 mi South 9.2 mph - 0.01 in   Overcast
9:49 AM 53.6 °F 53.6 °F 100% 29.97 in 9.0 mi South 10.4 mph 40.3 mph 0.01 in   Overcast
9:53 AM 54.0 °F 54.0 °F 100% 29.98 in 8.0 mi South 10.4 mph 19.6 mph 0.01 in   Overcast
10:53 AM 55.9 °F 55.0 °F 97% 29.97 in 10.0 mi North - - N/A   Overcast
11:53 AM 55.9 °F 55.0 °F 97% 29.99 in 3.0 mi SSW 5.8 mph - 0.00 in Rain Light Rain
12:04 PM 55.4 °F 55.4 °F 100% 29.98 in 2.5 mi SSE 3.5 mph - 0.04 in Rain Rain
12:23 PM 55.4 °F 55.4 °F 100% 29.99 in 3.0 mi Calm Calm - 0.08 in Rain Light Rain
12:53 PM 55.9 °F 55.0 °F 97% 30.01 in 3.0 mi Calm Calm - 0.10 in   Overcast
1:53 PM 57.9 °F 57.0 °F 97% 30.02 in 9.0 mi North 5.8 mph - N/A   Overcast
2:53 PM 60.1 °F 57.0 °F 90% 30.04 in 10.0 mi North 9.2 mph 28.8 mph N/A   Overcast
2:57 PM 59.0 °F 57.2 °F 94% 30.04 in 10.0 mi North 5.8 mph 28.8 mph N/A   Overcast
3:04 PM 60.8 °F 57.2 °F 88% 30.04 in 10.0 mi North 10.4 mph 20.7 mph N/A   Overcast
3:53 PM 60.1 °F 55.9 °F 86% 30.06 in 10.0 mi NNE 15.0 mph 21.9 mph N/A   Overcast
4:53 PM 60.1 °F 55.9 °F 86% 30.08 in 10.0 mi NNE 10.4 mph - N/A   Overcast
5:53 PM 59.0 °F 55.9 °F 90% 30.11 in 10.0 mi North 10.4 mph - N/A   Overcast
6:43 PM 59.0 °F 53.6 °F 82% 30.13 in 10.0 mi NNE 6.9 mph - N/A   Scattered Clouds
6:53 PM 57.0 °F 54.0 °F 89% 30.14 in 10.0 mi NNE 5.8 mph - N/A   Clear
7:53 PM 55.9 °F 54.0 °F 93% 30.17 in 10.0 mi NNE 3.5 mph - N/A   Mostly Cloudy
8:53 PM 55.0 °F 54.0 °F 96% 30.20 in 10.0 mi NNE 3.5 mph - N/A   Clear
9:53 PM 52.0 °F 52.0 °F 100% 30.20 in 10.0 mi NNE 4.6 mph - N/A   Clear
10:53 PM 53.1 °F 52.0 °F 96% 30.22 in 10.0 mi NNE 5.8 mph - N/A   Partly Cloudy
11:53 PM 54.0 °F 53.1 °F 97% 30.24 in 10.0 mi NNE 5.8 mph - N/A   Mostly Cloudy